Location: Clifton Park
(41.4873°N, 81.8024°W)
Time: 13:10:21
(UTC+00:00)

COSMO-SKYMED 1 - Pass Details

Date: 21 January 2020
Orbit: 621 x 623 km, 97.9° (Epoch: 17 February)

Event Time Altitude Azimuth Distance (km) Brightness Sun altitude
Rises 10:21:00 0° 156° (SSE) 2,889 6.3 -27.4°
Reaches altitude 10° 10:23:12 10° 152° (SSE) 1,987 5.5 -26.9°
Maximum altitude 10:27:27 57° 74° (ENE) 734 3.1 -26.1°
Enters shadow 10:28:35 42° 21° (NNE) 888 3.4 -25.9°
